Time,TemperatureF,DewpointF,PressureIn,WindDirection,WindDirectionDegrees,WindSpeedMPH,WindSpeedGustMPH,Humidity,HourlyPrecipIn,Conditions,Clouds,dailyrainin,SoftwareType,DateUTC
2013-03-13 00:04:00,53.2,37.5,29.26,West,265,0.0,0.0,55,0.00,,---,0.00,VWS V14.00,2013-03-13 07:04:00,
2013-03-13 00:10:00,53.1,37.3,29.26,West,265,0.0,0.0,55,0.00,,---,0.00,VWS V14.00,2013-03-13 07:10:00,
2013-03-13 00:16:00,52.9,37.2,29.26,West,265,0.0,0.0,55,0.00,,---,0.00,VWS V14.00,2013-03-13 07:16:00,
2013-03-13 00:22:00,52.7,37.5,29.26,West,265,0.0,0.0,56,0.00,,---,0.00,VWS V14.00,2013-03-13 07:22:00,
2013-03-13 00:27:00,52.7,37.5,29.26,West,265,0.0,0.0,56,0.00,,---,0.00,VWS V14.00,2013-03-13 07:27:00,
2013-03-13 00:32:00,52.5,37.3,29.26,West,265,0.0,0.0,56,0.00,,---,0.00,VWS V14.00,2013-03-13 07:32:00,
2013-03-13 00:38:00,52.3,37.1,29.26,West,265,0.0,0.0,56,0.00,,---,0.00,VWS V14.00,2013-03-13 07:38:00,
2013-03-13 00:44:00,52.3,37.6,29.26,West,265,0.0,0.0,57,0.00,,---,0.00,VWS V14.00,2013-03-13 07:44:00,
2013-03-13 00:49:00,52.3,37.6,29.26,West,265,0.0,0.0,57,0.00,,---,0.00,VWS V14.00,2013-03-13 07:49:00,
2013-03-13 00:54:00,52.7,38.3,29.26,West,265,0.0,0.0,58,0.00,,---,0.00,VWS V14.00,2013-03-13 07:54:00,
2013-03-13 01:00:00,52.5,37.7,29.26,West,265,0.0,0.0,57,0.00,,---,0.00,VWS V14.00,2013-03-13 08:00:00,
2013-03-13 01:08:00,52.3,37.6,29.26,West,265,0.0,0.0,57,0.00,,---,0.00,VWS V14.00,2013-03-13 08:08:00,
2013-03-13 01:13:00,52.2,37.4,29.26,West,265,0.0,0.0,57,0.00,,---,0.00,VWS V14.00,2013-03-13 08:13:00,
2013-03-13 01:18:00,52.2,37.8,29.26,West,265,0.0,0.0,58,0.00,,---,0.00,VWS V14.00,2013-03-13 08:18:00,
2013-03-13 02:04:00,51.3,38.3,29.26,West,265,0.0,0.0,61,0.00,,---,0.00,VWS V14.00,2013-03-13 09:04:00,
2013-03-13 02:05:00,51.3,38.3,29.26,West,265,0.0,0.0,61,0.00,,---,0.00,VWS V14.00,2013-03-13 09:05:00,
2013-03-13 02:06:00,51.3,38.3,29.26,West,265,0.0,0.0,61,0.00,,---,0.00,VWS V14.00,2013-03-13 09:06:00,
2013-03-13 02:07:00,51.3,38.3,29.26,West,265,0.0,0.0,61,0.00,,---,0.00,VWS V14.00,2013-03-13 09:07:00,
2013-03-13 02:08:00,51.3,38.3,29.26,West,265,0.0,0.0,61,0.00,,---,0.00,VWS V14.00,2013-03-13 09:08:00,
2013-03-13 02:09:00,51.1,38.1,29.26,West,265,0.0,0.0,61,0.00,,---,0.00,VWS V14.00,2013-03-13 09:09:00,
2013-03-13 02:10:00,51.1,38.1,29.26,West,265,0.0,0.0,61,0.00,,---,0.00,VWS V14.00,2013-03-13 09:10:00,
2013-03-13 02:11:00,51.1,38.1,29.26,West,265,0.0,0.0,61,0.00,,---,0.00,VWS V14.00,2013-03-13 09:11:00,
2013-03-13 02:12:00,51.1,38.1,29.26,West,265,0.0,0.0,61,0.00,,---,0.00,VWS V14.00,2013-03-13 09:12:00,
2013-03-13 02:13:00,51.1,38.1,29.26,West,265,0.0,0.0,61,0.00,,---,0.00,VWS V14.00,2013-03-13 09:13:00,
2013-03-13 02:14:00,51.1,38.1,29.26,West,265,0.0,0.0,61,0.00,,---,0.00,VWS V14.00,2013-03-13 09:14:00,
2013-03-13 02:15:00,51.1,38.1,29.26,West,265,0.0,0.0,61,0.00,,---,0.00,VWS V14.00,2013-03-13 09:15:00,
2013-03-13 02:16:00,51.1,38.1,29.26,West,265,0.0,0.0,61,0.00,,---,0.00,VWS V14.00,2013-03-13 09:16:00,
2013-03-13 02:17:00,51.1,38.1,29.26,West,265,0.0,0.0,61,0.00,,---,0.00,VWS V14.00,2013-03-13 09:17:00,
2013-03-13 02:18:00,51.1,38.5,29.26,West,265,0.0,0.0,62,0.00,,---,0.00,VWS V14.00,2013-03-13 09:18:00,
2013-03-13 02:19:00,51.1,38.5,29.26,West,265,0.0,0.0,62,0.00,,---,0.00,VWS V14.00,2013-03-13 09:19:00,
2013-03-13 02:20:00,51.1,38.5,29.26,West,265,0.0,0.0,62,0.00,,---,0.00,VWS V14.00,2013-03-13 09:20:00,
2013-03-13 02:21:00,51.1,38.5,29.26,West,265,0.0,0.0,62,0.00,,---,0.00,VWS V14.00,2013-03-13 09:21:00,
2013-03-13 02:22:00,51.1,38.5,29.26,West,265,0.0,0.0,62,0.00,,---,0.00,VWS V14.00,2013-03-13 09:22:00,
2013-03-13 02:23:00,51.1,38.5,29.26,West,265,0.0,0.0,62,0.00,,---,0.00,VWS V14.00,2013-03-13 09:23:00,
2013-03-13 02:24:00,51.1,38.5,29.26,West,265,0.0,0.0,62,0.00,,---,0.00,VWS V14.00,2013-03-13 09:24:00,
2013-03-13 02:25:00,51.1,38.5,29.26,West,265,0.0,0.0,62,0.00,,---,0.00,VWS V14.00,2013-03-13 09:25:00,
2013-03-13 02:26:00,51.1,38.5,29.26,West,265,0.0,0.0,62,0.00,,---,0.00,VWS V14.00,2013-03-13 09:26:00,
2013-03-13 02:27:00,51.1,38.5,29.26,West,265,0.0,0.0,62,0.00,,---,0.00,VWS V14.00,2013-03-13 09:27:00,
2013-03-13 02:28:00,51.1,38.5,29.26,West,265,0.0,0.0,62,0.00,,---,0.00,VWS V14.00,2013-03-13 09:28:00,
2013-03-13 02:29:00,51.1,38.5,29.26,West,265,0.0,0.0,62,0.00,,---,0.00,VWS V14.00,2013-03-13 09:29:00,
2013-03-13 02:50:00,51.1,38.5,29.26,West,265,0.0,0.0,62,0.00,,---,0.00,VWS V14.00,2013-03-13 09:50:00,
2013-03-13 02:55:00,50.9,38.4,29.26,West,265,0.0,0.0,62,0.00,,---,0.00,VWS V14.00,2013-03-13 09:55:00,
2013-03-13 03:01:00,50.9,38.4,29.26,West,265,0.0,0.0,62,0.00,,---,0.00,VWS V14.00,2013-03-13 10:01:00,
2013-03-13 03:06:00,50.7,38.6,29.26,West,265,0.0,0.0,63,0.00,,---,0.00,VWS V14.00,2013-03-13 10:06:00,
2013-03-13 03:11:00,50.7,38.6,29.26,West,265,0.0,0.0,63,0.00,,---,0.00,VWS V14.00,2013-03-13 10:11:00,
2013-03-13 03:16:00,50.5,38.4,29.26,West,265,0.0,0.0,63,0.00,,---,0.00,VWS V14.00,2013-03-13 10:16:00,
2013-03-13 03:22:00,50.5,38.4,29.26,West,265,0.0,0.0,63,0.00,,---,0.00,VWS V14.00,2013-03-13 10:22:00,
2013-03-13 03:28:00,50.5,38.8,29.26,West,265,0.0,0.0,64,0.00,,---,0.00,VWS V14.00,2013-03-13 10:28:00,
2013-03-13 03:33:00,50.4,38.7,29.26,West,265,0.0,0.0,64,0.00,,---,0.00,VWS V14.00,2013-03-13 10:33:00,
2013-03-13 03:38:00,50.4,38.7,29.26,West,265,0.0,0.0,64,0.00,,---,0.00,VWS V14.00,2013-03-13 10:38:00,
2013-03-13 03:43:00,50.4,38.7,29.26,West,265,0.0,0.0,64,0.00,,---,0.00,VWS V14.00,2013-03-13 10:43:00,
2013-03-13 03:49:00,50.2,38.9,29.26,West,265,0.0,0.0,65,0.00,,---,0.00,VWS V14.00,2013-03-13 10:49:00,
2013-03-13 03:54:00,50.0,38.7,29.26,West,265,0.0,0.0,65,0.00,,---,0.00,VWS V14.00,2013-03-13 10:54:00,
2013-03-13 04:00:00,50.0,38.7,29.26,West,265,0.0,0.0,65,0.00,,---,0.00,VWS V14.00,2013-03-13 11:00:00,
2013-03-13 04:06:00,49.8,38.9,29.26,West,265,0.0,0.0,66,0.00,,---,0.00,VWS V14.00,2013-03-13 11:06:00,
2013-03-13 04:11:00,49.8,38.9,29.26,West,265,0.0,0.0,66,0.00,,---,0.00,VWS V14.00,2013-03-13 11:11:00,
2013-03-13 04:16:00,49.8,38.9,29.26,West,265,0.0,0.0,66,0.00,,---,0.00,VWS V14.00,2013-03-13 11:16:00,
2013-03-13 04:21:00,49.6,38.8,29.26,West,265,0.0,0.0,66,0.00,,---,0.00,VWS V14.00,2013-03-13 11:21:00,
2013-03-13 04:27:00,49.6,38.8,29.26,West,265,0.0,0.0,66,0.00,,---,0.00,VWS V14.00,2013-03-13 11:27:00,
2013-03-13 04:33:00,49.6,38.8,29.26,West,265,0.0,0.0,66,0.00,,---,0.00,VWS V14.00,2013-03-13 11:33:00,
2013-03-13 04:39:00,49.8,39.3,29.26,West,265,0.0,0.0,67,0.00,,---,0.00,VWS V14.00,2013-03-13 11:39:00,
2013-03-13 04:45:00,50.0,39.5,29.26,West,265,0.0,0.0,67,0.00,,---,0.00,VWS V14.00,2013-03-13 11:45:00,
2013-03-13 04:50:00,50.0,39.5,29.26,West,265,0.0,0.0,67,0.00,,---,0.00,VWS V14.00,2013-03-13 11:50:00,
2013-03-13 04:55:00,50.0,39.5,29.26,West,265,0.0,0.0,67,0.00,,---,0.00,VWS V14.00,2013-03-13 11:55:00,
2013-03-13 05:00:00,50.0,39.5,29.26,West,265,0.0,0.0,67,0.00,,---,0.00,VWS V14.00,2013-03-13 12:00:00,
2013-03-13 05:06:00,50.2,39.7,29.26,West,265,0.0,0.0,67,0.00,,---,0.00,VWS V14.00,2013-03-13 12:06:00,
2013-03-13 05:11:00,50.2,40.0,29.26,West,265,0.0,0.0,68,0.00,,---,0.00,VWS V14.00,2013-03-13 12:11:00,
2013-03-13 05:17:00,50.4,40.2,29.26,West,265,0.0,0.0,68,0.00,,---,0.00,VWS V14.00,2013-03-13 12:17:00,
2013-03-13 05:23:00,50.4,40.2,29.26,West,265,0.0,0.0,68,0.00,,---,0.00,VWS V14.00,2013-03-13 12:23:00,
2013-03-13 06:19:00,50.7,40.6,29.26,West,265,0.0,0.0,68,0.00,,---,0.00,VWS V14.00,2013-03-13 13:19:00,
2013-03-13 06:25:00,50.7,40.6,29.26,West,265,0.0,0.0,68,0.00,,---,0.00,VWS V14.00,2013-03-13 13:25:00,
2013-03-13 06:30:00,50.7,40.6,29.26,West,265,0.0,0.0,68,0.00,,---,0.00,VWS V14.00,2013-03-13 13:30:00,
2013-03-13 06:35:00,50.5,40.4,29.26,West,265,0.0,0.0,68,0.00,,---,0.00,VWS V14.00,2013-03-13 13:35:00,
2013-03-13 06:40:00,50.5,40.0,29.26,West,265,0.0,0.0,67,0.00,,---,0.00,VWS V14.00,2013-03-13 13:40:00,
2013-03-13 06:45:00,50.4,39.8,29.26,West,265,0.0,0.0,67,0.00,,---,0.00,VWS V14.00,2013-03-13 13:45:00,
2013-03-13 06:51:00,50.2,39.7,29.26,West,265,0.0,0.0,67,0.00,,---,0.00,VWS V14.00,2013-03-13 13:51:00,
2013-03-13 06:56:00,50.0,39.5,29.26,West,265,0.0,0.0,67,0.00,,---,0.00,VWS V14.00,2013-03-13 13:56:00,
2013-03-13 07:02:00,49.8,39.7,29.26,West,265,0.0,0.0,68,0.00,,---,0.00,VWS V14.00,2013-03-13 14:02:00,
2013-03-13 07:08:00,49.8,39.7,29.26,West,265,0.0,0.0,68,0.00,,---,0.00,VWS V14.00,2013-03-13 14:08:00,
2013-03-13 07:14:00,49.6,39.5,29.26,West,265,0.0,0.0,68,0.00,,---,0.00,VWS V14.00,2013-03-13 14:14:00,
2013-03-13 07:19:00,49.6,39.5,29.26,West,265,0.0,0.0,68,0.00,,---,0.00,VWS V14.00,2013-03-13 14:19:00,
2013-03-13 07:25:00,49.6,39.5,29.26,West,265,0.0,0.0,68,0.00,,---,0.00,VWS V14.00,2013-03-13 14:25:00,
2013-03-13 07:30:00,49.8,39.7,29.26,West,265,0.0,0.0,68,0.00,,---,0.00,VWS V14.00,2013-03-13 14:30:00,
2013-03-13 07:36:00,50.0,39.9,29.26,West,265,0.0,0.0,68,0.00,,---,0.00,VWS V14.00,2013-03-13 14:36:00,
2013-03-13 07:42:00,50.0,39.9,29.26,West,265,0.0,0.0,68,0.00,,---,0.00,VWS V14.00,2013-03-13 14:42:00,
2013-03-13 07:48:00,50.2,40.0,29.26,West,265,0.0,0.0,68,0.00,,---,0.00,VWS V14.00,2013-03-13 14:48:00,
2013-03-13 07:54:00,50.2,40.0,29.26,West,265,0.0,0.0,68,0.00,,---,0.00,VWS V14.00,2013-03-13 14:54:00,
2013-03-13 08:00:00,50.4,40.6,29.26,West,265,0.0,0.0,69,0.00,,---,0.00,VWS V14.00,2013-03-13 15:00:00,
2013-03-13 08:06:00,50.7,40.9,29.26,West,265,0.0,0.0,69,0.00,,---,0.00,VWS V14.00,2013-03-13 15:06:00,
2013-03-13 08:12:00,50.9,40.7,29.29,West,265,0.0,0.0,68,0.00,,---,0.00,VWS V14.00,2013-03-13 15:12:00,
2013-03-13 08:19:00,51.1,40.9,29.29,West,265,0.0,0.0,68,0.00,,---,0.00,VWS V14.00,2013-03-13 15:19:00,
2013-03-13 08:25:00,51.3,41.1,29.29,West,265,0.0,0.0,68,0.00,,---,0.00,VWS V14.00,2013-03-13 15:25:00,
2013-03-13 08:30:00,51.4,41.2,29.29,West,265,0.0,0.0,68,0.00,,---,0.00,VWS V14.00,2013-03-13 15:30:00,
2013-03-13 08:39:00,52.2,41.9,29.29,SSE,151,0.0,0.0,68,0.00,,---,0.00,VWS V14.00,2013-03-13 15:39:00,
2013-03-13 08:44:00,52.5,42.3,29.29,SSE,151,0.0,0.0,68,0.00,,---,0.00,VWS V14.00,2013-03-13 15:44:00,
2013-03-13 08:49:00,52.9,42.6,29.29,SSE,151,0.0,0.0,68,0.00,,---,0.00,VWS V14.00,2013-03-13 15:49:00,
2013-03-13 08:54:00,53.2,42.6,29.29,SSE,151,0.0,0.0,67,0.00,,---,0.00,VWS V14.00,2013-03-13 15:54:00,
2013-03-13 09:00:00,53.8,42.7,29.26,SSE,151,0.0,0.0,66,0.00,,---,0.00,VWS V14.00,2013-03-13 16:00:00,
2013-03-13 09:05:00,54.1,43.0,29.26,SE,136,0.0,0.0,66,0.00,,---,0.00,VWS V14.00,2013-03-13 16:05:00,
2013-03-13 09:10:00,54.7,43.2,29.26,SE,136,0.0,0.0,65,0.00,,---,0.00,VWS V14.00,2013-03-13 16:10:00,
2013-03-13 09:15:00,55.2,43.3,29.26,ESE,117,0.0,0.0,64,0.00,,---,0.00,VWS V14.00,2013-03-13 16:15:00,
2013-03-13 09:22:00,55.9,42.7,29.26,ESE,118,0.0,0.0,61,0.00,,---,0.00,VWS V14.00,2013-03-13 16:22:00,
2013-03-13 09:28:00,56.7,42.1,29.26,SE,128,0.0,0.0,58,0.00,,---,0.00,VWS V14.00,2013-03-13 16:28:00,
2013-03-13 09:33:00,57.0,41.5,29.26,ESE,121,0.0,0.0,56,0.00,,---,0.00,VWS V14.00,2013-03-13 16:33:00,
2013-03-13 09:39:00,57.6,41.5,29.26,SE,124,0.0,0.0,55,0.00,,---,0.00,VWS V14.00,2013-03-13 16:39:00,
2013-03-13 09:48:00,58.1,41.1,29.26,ESE,109,0.0,0.0,53,0.00,,---,0.00,VWS V14.00,2013-03-13 16:48:00,
2013-03-13 09:53:00,58.5,40.4,29.26,SE,143,2.2,2.2,51,0.00,,---,0.00,VWS V14.00,2013-03-13 16:53:00,
2013-03-13 09:58:00,59.0,39.4,29.26,ESE,120,0.0,0.0,48,0.00,,---,0.00,VWS V14.00,2013-03-13 16:58:00,
2013-03-13 10:04:00,59.4,39.2,29.26,ESE,106,0.0,0.0,47,0.00,,---,0.00,VWS V14.00,2013-03-13 17:04:00,
2013-03-13 10:09:00,59.7,39.5,29.26,ESE,115,2.2,2.2,47,0.00,,---,0.00,VWS V14.00,2013-03-13 17:09:00,
2013-03-13 10:15:00,60.1,39.2,29.29,ESE,123,0.0,0.0,46,0.00,,---,0.00,VWS V14.00,2013-03-13 17:15:00,
2013-03-13 10:20:00,60.4,39.6,29.29,SE,130,2.2,2.7,46,0.00,,---,0.00,VWS V14.00,2013-03-13 17:20:00,
2013-03-13 10:26:00,60.8,39.3,29.29,SE,129,0.0,0.0,45,0.00,,---,0.00,VWS V14.00,2013-03-13 17:26:00,
2013-03-13 11:23:00,66.6,39.5,29.26,SE,130,0.0,3.6,37,0.00,,---,0.00,VWS V14.00,2013-03-13 18:23:00,
2013-03-13 11:29:00,67.1,40.0,29.26,SSW,194,0.0,2.2,37,0.00,,---,0.00,VWS V14.00,2013-03-13 18:29:00,
2013-03-13 11:34:00,67.5,39.6,29.26,WNW,301,0.0,2.2,36,0.00,,---,0.00,VWS V14.00,2013-03-13 18:34:00,
2013-03-13 11:39:00,68.0,39.3,29.26,SE,145,0.0,0.0,35,0.00,,---,0.00,VWS V14.00,2013-03-13 18:39:00,
2013-03-13 11:45:00,68.2,38.8,29.26,NNW,329,0.0,0.0,34,0.00,,---,0.00,VWS V14.00,2013-03-13 18:45:00,
2013-03-13 11:51:00,68.7,39.2,29.26,ENE,77,0.0,0.0,34,0.00,,---,0.00,VWS V14.00,2013-03-13 18:51:00,
2013-03-13 11:57:00,69.3,39.0,29.29,East,94,0.0,0.0,33,0.00,,---,0.00,VWS V14.00,2013-03-13 18:57:00,
2013-03-13 12:02:00,69.4,39.1,29.29,WSW,245,0.0,0.0,33,0.00,,---,0.00,VWS V14.00,2013-03-13 19:02:00,
2013-03-13 12:10:00,70.2,39.7,29.26,WNW,283,0.0,0.0,33,0.00,,---,0.00,VWS V14.00,2013-03-13 19:10:00,
2013-03-13 12:15:00,70.5,40.1,29.26,WSW,250,0.0,0.0,33,0.00,,---,0.00,VWS V14.00,2013-03-13 19:15:00,
2013-03-13 12:20:00,70.3,39.1,29.26,WSW,256,0.0,4.9,32,0.00,,---,0.00,VWS V14.00,2013-03-13 19:20:00,
2013-03-13 12:27:00,71.2,40.7,29.26,WSW,249,0.0,0.0,33,0.00,,---,0.00,VWS V14.00,2013-03-13 19:27:00,
2013-03-13 12:33:00,71.6,40.2,29.26,WSW,249,0.0,0.0,32,0.00,,---,0.00,VWS V14.00,2013-03-13 19:33:00,
2013-03-13 12:39:00,72.0,40.5,29.26,SW,229,0.0,0.0,32,0.00,,---,0.00,VWS V14.00,2013-03-13 19:39:00,
2013-03-13 12:44:00,71.8,40.4,29.26,West,259,0.0,0.0,32,0.00,,---,0.00,VWS V14.00,2013-03-13 19:44:00,
2013-03-13 12:50:00,72.0,39.7,29.26,WSW,242,3.6,3.6,31,0.00,,---,0.00,VWS V14.00,2013-03-13 19:50:00,
2013-03-13 12:56:00,72.0,40.5,29.26,SW,235,0.0,0.0,32,0.00,,---,0.00,VWS V14.00,2013-03-13 19:56:00,
2013-03-13 13:01:00,72.3,40.8,29.26,SW,223,0.0,0.0,32,0.00,,---,0.00,VWS V14.00,2013-03-13 20:01:00,
2013-03-13 13:07:00,72.7,41.2,29.26,WSW,258,0.0,0.0,32,0.00,,---,0.00,VWS V14.00,2013-03-13 20:07:00,
2013-03-13 13:13:00,73.0,41.5,29.26,SW,227,0.0,0.0,32,0.00,,---,0.00,VWS V14.00,2013-03-13 20:13:00,
2013-03-13 13:19:00,73.8,41.3,29.26,WNW,283,0.0,0.0,31,0.00,,---,0.00,VWS V14.00,2013-03-13 20:19:00,
2013-03-13 13:25:00,74.5,41.0,29.26,WSW,258,0.0,0.0,30,0.00,,---,0.00,VWS V14.00,2013-03-13 20:25:00,
2013-03-13 13:54:00,75.6,41.1,29.23,WSW,252,0.0,2.7,29,0.00,,---,0.00,VWS V14.00,2013-03-13 20:54:00,
2013-03-13 13:55:00,75.4,41.0,29.23,SSW,199,0.0,0.0,29,0.00,,---,0.00,VWS V14.00,2013-03-13 20:55:00,
2013-03-13 13:56:00,75.4,41.0,29.23,SSW,199,0.0,0.0,29,0.00,,---,0.00,VWS V14.00,2013-03-13 20:56:00,
2013-03-13 13:57:00,75.4,41.0,29.23,SSW,199,0.0,0.0,29,0.00,,---,0.00,VWS V14.00,2013-03-13 20:57:00,
2013-03-13 13:58:00,75.4,41.0,29.23,SSW,199,0.0,0.0,29,0.00,,---,0.00,VWS V14.00,2013-03-13 20:58:00,
2013-03-13 13:59:00,75.4,41.0,29.23,SSW,199,0.0,0.0,29,0.00,,---,0.00,VWS V14.00,2013-03-13 20:59:00,
2013-03-13 14:00:00,75.4,41.0,29.23,SSW,199,0.0,0.0,29,0.00,,---,0.00,VWS V14.00,2013-03-13 21:00:00,
2013-03-13 14:01:00,75.4,41.0,29.23,SSW,199,0.0,0.0,29,0.00,,---,0.00,VWS V14.00,2013-03-13 21:01:00,
2013-03-13 14:02:00,75.4,41.0,29.23,SSW,199,0.0,0.0,29,0.00,,---,0.00,VWS V14.00,2013-03-13 21:02:00,
2013-03-13 14:03:00,75.2,40.8,29.23,SSW,200,0.0,0.0,29,0.00,,---,0.00,VWS V14.00,2013-03-13 21:03:00,
2013-03-13 14:04:00,75.2,40.8,29.23,SSW,205,0.0,0.0,29,0.00,,---,0.00,VWS V14.00,2013-03-13 21:04:00,
2013-03-13 14:05:00,75.4,41.0,29.23,SSW,209,0.0,0.0,29,0.00,,---,0.00,VWS V14.00,2013-03-13 21:05:00,
2013-03-13 14:06:00,75.4,41.0,29.23,SW,216,0.0,0.0,29,0.00,,---,0.00,VWS V14.00,2013-03-13 21:06:00,
2013-03-13 14:07:00,75.4,41.0,29.23,SW,216,0.0,0.0,29,0.00,,---,0.00,VWS V14.00,2013-03-13 21:07:00,
2013-03-13 14:08:00,75.4,41.0,29.23,SW,216,0.0,0.0,29,0.00,,---,0.00,VWS V14.00,2013-03-13 21:08:00,
2013-03-13 14:09:00,75.4,41.0,29.23,SW,216,0.0,0.0,29,0.00,,---,0.00,VWS V14.00,2013-03-13 21:09:00,
2013-03-13 14:10:00,75.4,41.0,29.23,SW,230,0.0,0.0,29,0.00,,---,0.00,VWS V14.00,2013-03-13 21:10:00,
2013-03-13 14:11:00,75.4,41.0,29.23,SW,230,0.0,0.0,29,0.00,,---,0.00,VWS V14.00,2013-03-13 21:11:00,
2013-03-13 14:13:00,75.4,41.0,29.23,SW,230,0.0,0.0,29,0.00,,---,0.00,VWS V14.00,2013-03-13 21:13:00,
2013-03-13 14:14:00,75.4,41.0,29.23,SW,230,0.0,0.0,29,0.00,,---,0.00,VWS V14.00,2013-03-13 21:14:00,
2013-03-13 14:15:00,75.4,41.0,29.23,SW,230,0.0,0.0,29,0.00,,---,0.00,VWS V14.00,2013-03-13 21:15:00,
2013-03-13 14:16:00,75.4,41.0,29.23,SW,230,0.0,0.0,29,0.00,,---,0.00,VWS V14.00,2013-03-13 21:16:00,
2013-03-13 14:17:00,75.4,41.0,29.23,SW,230,0.0,0.0,29,0.00,,---,0.00,VWS V14.00,2013-03-13 21:17:00,
2013-03-13 14:18:00,75.4,41.0,29.23,SW,230,0.0,0.0,29,0.00,,---,0.00,VWS V14.00,2013-03-13 21:18:00,
2013-03-13 14:19:00,75.4,41.0,29.23,SW,230,0.0,0.0,29,0.00,,---,0.00,VWS V14.00,2013-03-13 21:19:00,
2013-03-13 14:20:00,75.4,41.0,29.23,SW,230,0.0,0.0,29,0.00,,---,0.00,VWS V14.00,2013-03-13 21:20:00,
2013-03-13 14:21:00,75.4,41.0,29.23,SW,230,0.0,0.0,29,0.00,,---,0.00,VWS V14.00,2013-03-13 21:21:00,
2013-03-13 14:22:00,75.4,41.0,29.23,SW,228,0.0,0.0,29,0.00,,---,0.00,VWS V14.00,2013-03-13 21:22:00,
2013-03-13 14:23:00,75.4,41.0,29.23,SW,228,0.0,0.0,29,0.00,,---,0.00,VWS V14.00,2013-03-13 21:23:00,
2013-03-13 14:24:00,75.4,41.0,29.23,SW,228,0.0,0.0,29,0.00,,---,0.00,VWS V14.00,2013-03-13 21:24:00,
2013-03-13 14:25:00,75.4,41.0,29.23,SW,228,0.0,0.0,29,0.00,,---,0.00,VWS V14.00,2013-03-13 21:25:00,
2013-03-13 14:26:00,75.4,41.0,29.23,SW,228,0.0,0.0,29,0.00,,---,0.00,VWS V14.00,2013-03-13 21:26:00,
2013-03-13 14:27:00,75.4,41.0,29.23,SW,228,0.0,0.0,29,0.00,,---,0.00,VWS V14.00,2013-03-13 21:27:00,
2013-03-13 14:28:00,75.4,41.0,29.23,SW,228,0.0,0.0,29,0.00,,---,0.00,VWS V14.00,2013-03-13 21:28:00,
2013-03-13 14:29:00,75.2,40.8,29.23,SW,228,0.0,0.0,29,0.00,,---,0.00,VWS V14.00,2013-03-13 21:29:00,
2013-03-13 15:27:00,75.2,40.8,29.23,SW,228,0.0,0.0,29,0.00,,---,0.00,VWS V14.00,2013-03-13 22:27:00,
2013-03-13 15:32:00,74.8,40.5,29.23,SW,228,0.0,0.0,29,0.00,,---,0.00,VWS V14.00,2013-03-13 22:32:00,
2013-03-13 15:37:00,74.7,41.2,29.23,West,260,0.0,0.0,30,0.00,,---,0.00,VWS V14.00,2013-03-13 22:37:00,
2013-03-13 15:42:00,74.7,40.3,29.23,SW,229,0.0,0.0,29,0.00,,---,0.00,VWS V14.00,2013-03-13 22:42:00,
2013-03-13 15:48:00,74.5,41.0,29.23,WSW,244,0.0,0.0,30,0.00,,---,0.00,VWS V14.00,2013-03-13 22:48:00,
2013-03-13 15:55:00,74.3,40.9,29.23,West,279,0.0,0.0,30,0.00,,---,0.00,VWS V14.00,2013-03-13 22:55:00,
2013-03-13 16:00:00,74.1,40.7,29.23,WNW,292,0.0,0.0,30,0.00,,---,0.00,VWS V14.00,2013-03-13 23:00:00,
2013-03-13 16:05:00,74.1,40.7,29.23,West,274,0.0,0.0,30,0.00,,---,0.00,VWS V14.00,2013-03-13 23:05:00,
2013-03-13 16:11:00,73.9,41.4,29.23,West,274,0.0,0.0,31,0.00,,---,0.00,VWS V14.00,2013-03-13 23:11:00,
2013-03-13 16:17:00,73.9,40.6,29.23,WNW,285,0.0,0.0,30,0.00,,---,0.00,VWS V14.00,2013-03-13 23:17:00,
2013-03-13 16:22:00,73.8,40.4,29.23,WSW,246,0.0,0.0,30,0.00,,---,0.00,VWS V14.00,2013-03-13 23:22:00,
2013-03-13 16:27:00,73.8,40.4,29.23,WSW,246,0.0,0.0,30,0.00,,---,0.00,VWS V14.00,2013-03-13 23:27:00,
2013-03-13 16:33:00,73.4,41.0,29.23,WSW,246,0.0,0.0,31,0.00,,---,0.00,VWS V14.00,2013-03-13 23:33:00,
2013-03-13 16:38:00,73.4,40.1,29.23,SE,140,0.0,0.0,30,0.00,,---,0.00,VWS V14.00,2013-03-13 23:38:00,
2013-03-13 16:44:00,73.2,40.0,29.23,SE,140,0.0,0.0,30,0.00,,---,0.00,VWS V14.00,2013-03-13 23:44:00,
2013-03-13 16:49:00,73.2,39.1,29.23,WNW,293,3.1,3.6,29,0.00,,---,0.00,VWS V14.00,2013-03-13 23:49:00,
2013-03-13 16:55:00,73.2,39.1,29.21,SSW,211,0.0,0.0,29,0.00,,---,0.00,VWS V14.00,2013-03-13 23:55:00,
2013-03-13 17:00:00,73.2,39.1,29.21,SW,236,0.0,0.0,29,0.00,,---,0.00,VWS V14.00,2013-03-14 00:00:00,
2013-03-13 17:06:00,73.0,38.9,29.21,SW,235,0.0,0.0,29,0.00,,---,0.00,VWS V14.00,2013-03-14 00:06:00,
2013-03-13 17:12:00,72.9,38.8,29.21,SW,235,0.0,0.0,29,0.00,,---,0.00,VWS V14.00,2013-03-14 00:12:00,
2013-03-13 17:18:00,72.7,39.5,29.21,SSW,213,0.0,0.0,30,0.00,,---,0.00,VWS V14.00,2013-03-14 00:18:00,
2013-03-13 17:24:00,72.5,39.3,29.21,SSW,213,0.0,0.0,30,0.00,,---,0.00,VWS V14.00,2013-03-14 00:24:00,
2013-03-13 17:30:00,72.5,38.5,29.21,NW,313,0.0,3.6,29,0.00,,---,0.00,VWS V14.00,2013-03-14 00:30:00,
2013-03-13 17:36:00,72.7,38.6,29.21,NW,306,0.0,0.0,29,0.00,,---,0.00,VWS V14.00,2013-03-14 00:36:00,
2013-03-13 17:41:00,72.7,38.6,29.21,NW,323,0.0,0.0,29,0.00,,---,0.00,VWS V14.00,2013-03-14 00:41:00,
2013-03-13 17:47:00,72.5,38.5,29.21,NW,323,0.0,0.0,29,0.00,,---,0.00,VWS V14.00,2013-03-14 00:47:00,
2013-03-13 17:53:00,72.1,39.0,29.21,North,1,0.0,0.0,30,0.00,,---,0.00,VWS V14.00,2013-03-14 00:53:00,
2013-03-13 17:58:00,71.8,39.5,29.21,North,1,0.0,0.0,31,0.00,,---,0.00,VWS V14.00,2013-03-14 00:58:00,
2013-03-13 18:04:00,71.4,40.0,29.21,ESE,120,0.0,0.0,32,0.00,,---,0.00,VWS V14.00,2013-03-14 01:04:00,
2013-03-13 18:09:00,71.2,39.9,29.21,ESE,120,0.0,0.0,32,0.00,,---,0.00,VWS V14.00,2013-03-14 01:09:00,
2013-03-13 18:15:00,70.9,39.6,29.21,ESE,120,0.0,0.0,32,0.00,,---,0.00,VWS V14.00,2013-03-14 01:15:00,
2013-03-13 19:07:00,68.2,38.0,29.20,ESE,108,0.0,0.0,33,0.00,,---,0.00,VWS V14.00,2013-03-14 02:07:00,
2013-03-13 19:08:00,68.2,38.0,29.20,ESE,108,0.0,0.0,33,0.00,,---,0.00,VWS V14.00,2013-03-14 02:08:00,
2013-03-13 20:04:00,65.8,37.5,29.21,SE,142,0.0,0.0,35,0.00,,---,0.00,VWS V14.00,2013-03-14 03:04:00,
2013-03-13 20:09:00,65.8,37.5,29.21,SE,142,0.0,0.0,35,0.00,,---,0.00,VWS V14.00,2013-03-14 03:09:00,
2013-03-13 20:15:00,65.7,37.3,29.21,SE,142,0.0,0.0,35,0.00,,---,0.00,VWS V14.00,2013-03-14 03:15:00,
2013-03-13 20:21:00,65.7,37.3,29.21,SE,142,0.0,0.0,35,0.00,,---,0.00,VWS V14.00,2013-03-14 03:21:00,
2013-03-13 20:24:00,65.3,37.7,29.21,SE,142,0.0,0.0,36,0.00,,---,0.00,VWS V14.00,2013-03-14 03:24:00,
2013-03-13 20:26:00,65.3,37.7,29.21,SE,142,0.0,0.0,36,0.00,,---,0.00,VWS V14.00,2013-03-14 03:26:00,
2013-03-13 20:27:00,65.5,37.8,29.21,SE,142,0.0,0.0,36,0.00,,---,0.00,VWS V14.00,2013-03-14 03:27:00,
2013-03-13 20:39:00,65.1,37.5,29.21,SE,142,0.0,0.0,36,0.00,,---,0.00,VWS V14.00,2013-03-14 03:39:00,
2013-03-13 20:44:00,64.8,37.2,29.21,SE,142,0.0,0.0,36,0.00,,---,0.00,VWS V14.00,2013-03-14 03:44:00,
2013-03-13 20:50:00,64.6,37.0,29.21,SE,142,0.0,0.0,36,0.00,,---,0.00,VWS V14.00,2013-03-14 03:50:00,
2013-03-13 20:57:00,64.4,36.9,29.21,SE,142,0.0,0.0,36,0.00,,---,0.00,VWS V14.00,2013-03-14 03:57:00,
2013-03-13 21:00:00,64.2,37.4,29.21,SE,142,0.0,0.0,37,0.00,,---,0.00,VWS V14.00,2013-03-14 04:00:00,
2013-03-13 21:05:00,64.0,37.3,29.21,SE,142,0.0,0.0,37,0.00,,---,0.00,VWS V14.00,2013-03-14 04:05:00,
2013-03-13 21:07:00,63.9,37.1,29.21,SE,142,0.0,0.0,37,0.00,,---,0.00,VWS V14.00,2013-03-14 04:07:00,
2013-03-13 21:12:00,63.7,37.0,29.23,SE,142,0.0,0.0,37,0.00,,---,0.00,VWS V14.00,2013-03-14 04:12:00,
2013-03-13 21:13:00,63.7,37.0,29.23,SE,142,0.0,0.0,37,0.00,,---,0.00,VWS V14.00,2013-03-14 04:13:00,
2013-03-13 21:18:00,63.5,37.5,29.23,SE,142,0.0,0.0,38,0.00,,---,0.00,VWS V14.00,2013-03-14 04:18:00,
2013-03-13 21:23:00,63.3,37.3,29.23,SE,142,0.0,0.0,38,0.00,,---,0.00,VWS V14.00,2013-03-14 04:23:00,
2013-03-13 21:29:00,63.3,37.3,29.23,SE,142,0.0,0.0,38,0.00,,---,0.00,VWS V14.00,2013-03-14 04:29:00,
2013-03-13 21:34:00,63.1,37.1,29.23,SE,142,0.0,0.0,38,0.00,,---,0.00,VWS V14.00,2013-03-14 04:34:00,
2013-03-13 21:39:00,63.1,37.1,29.23,SE,142,0.0,0.0,38,0.00,,---,0.00,VWS V14.00,2013-03-14 04:39:00,
2013-03-13 21:44:00,63.0,37.0,29.23,SE,142,0.0,0.0,38,0.00,,---,0.00,VWS V14.00,2013-03-14 04:44:00,
2013-03-13 21:50:00,63.0,37.0,29.23,SE,142,0.0,0.0,38,0.00,,---,0.00,VWS V14.00,2013-03-14 04:50:00,
2013-03-13 21:55:00,63.0,37.0,29.23,SE,142,0.0,0.0,38,0.00,,---,0.00,VWS V14.00,2013-03-14 04:55:00,
2013-03-13 22:12:00,61.5,37.0,29.23,SE,142,0.0,0.0,40,0.00,,---,0.00,VWS V14.00,2013-03-14 05:12:00,
2013-03-13 22:13:00,61.5,37.0,29.23,SE,142,0.0,0.0,40,0.00,,---,0.00,VWS V14.00,2013-03-14 05:13:00,
2013-03-13 22:14:00,61.5,37.6,29.23,SE,142,0.0,0.0,41,0.00,,---,0.00,VWS V14.00,2013-03-14 05:14:00,
2013-03-13 22:15:00,61.5,37.6,29.23,SE,142,0.0,0.0,41,0.00,,---,0.00,VWS V14.00,2013-03-14 05:15:00,
2013-03-13 22:16:00,61.3,37.5,29.23,SE,142,0.0,0.0,41,0.00,,---,0.00,VWS V14.00,2013-03-14 05:16:00,
2013-03-13 22:17:00,61.3,37.5,29.23,SE,142,0.0,0.0,41,0.00,,---,0.00,VWS V14.00,2013-03-14 05:17:00,
2013-03-13 22:18:00,61.3,37.5,29.23,SE,142,0.0,0.0,41,0.00,,---,0.00,VWS V14.00,2013-03-14 05:18:00,
2013-03-13 22:19:00,61.3,37.5,29.23,SE,142,0.0,0.0,41,0.00,,---,0.00,VWS V14.00,2013-03-14 05:19:00,
2013-03-13 22:20:00,61.3,37.5,29.23,SE,142,0.0,0.0,41,0.00,,---,0.00,VWS V14.00,2013-03-14 05:20:00,
2013-03-13 22:21:00,61.3,37.5,29.23,SE,142,0.0,0.0,41,0.00,,---,0.00,VWS V14.00,2013-03-14 05:21:00,
2013-03-13 22:22:00,61.3,37.5,29.23,SE,142,0.0,0.0,41,0.00,,---,0.00,VWS V14.00,2013-03-14 05:22:00,
2013-03-13 22:23:00,61.2,37.3,29.23,SE,142,0.0,0.0,41,0.00,,---,0.00,VWS V14.00,2013-03-14 05:23:00,
2013-03-13 22:24:00,61.2,37.3,29.23,SE,142,0.0,0.0,41,0.00,,---,0.00,VWS V14.00,2013-03-14 05:24:00,
2013-03-13 22:25:00,61.2,37.3,29.23,SE,142,0.0,0.0,41,0.00,,---,0.00,VWS V14.00,2013-03-14 05:25:00,
2013-03-13 22:26:00,61.2,37.3,29.23,SE,142,0.0,0.0,41,0.00,,---,0.00,VWS V14.00,2013-03-14 05:26:00,
2013-03-13 22:27:00,61.0,37.1,29.23,SE,142,0.0,0.0,41,0.00,,---,0.00,VWS V14.00,2013-03-14 05:27:00,
2013-03-13 22:28:00,61.0,37.1,29.23,SE,142,0.0,0.0,41,0.00,,---,0.00,VWS V14.00,2013-03-14 05:28:00,
2013-03-13 22:29:00,61.0,37.1,29.23,SE,142,0.0,0.0,41,0.00,,---,0.00,VWS V14.00,2013-03-14 05:29:00,
2013-03-13 22:30:00,60.8,37.0,29.23,SE,142,0.0,0.0,41,0.00,,---,0.00,VWS V14.00,2013-03-14 05:30:00,
2013-03-13 22:52:00,60.8,37.0,29.23,SE,142,0.0,0.0,41,0.00,,---,0.00,VWS V14.00,2013-03-14 05:52:00,
2013-03-13 22:58:00,60.6,37.4,29.23,SE,142,0.0,0.0,42,0.00,,---,0.00,VWS V14.00,2013-03-14 05:58:00,
2013-03-13 23:03:00,60.4,37.9,29.23,SE,142,0.0,0.0,43,0.00,,---,0.00,VWS V14.00,2013-03-14 06:03:00,
2013-03-13 23:08:00,60.1,37.5,29.23,SE,142,0.0,0.0,43,0.00,,---,0.00,VWS V14.00,2013-03-14 06:08:00,
2013-03-13 23:13:00,60.1,38.1,29.23,SE,142,0.0,0.0,44,0.00,,---,0.00,VWS V14.00,2013-03-14 06:13:00,
2013-03-13 23:19:00,59.9,38.0,29.23,SE,142,0.0,0.0,44,0.00,,---,0.00,VWS V14.00,2013-03-14 06:19:00,
2013-03-13 23:25:00,59.7,38.4,29.23,SE,142,0.0,0.0,45,0.00,,---,0.00,VWS V14.00,2013-03-14 06:25:00,
2013-03-13 23:30:00,59.5,38.2,29.23,SE,142,0.0,0.0,45,0.00,,---,0.00,VWS V14.00,2013-03-14 06:30:00,
2013-03-13 23:35:00,59.4,38.0,29.23,SE,142,0.0,0.0,45,0.00,,---,0.00,VWS V14.00,2013-03-14 06:35:00,
2013-03-13 23:41:00,59.4,38.0,29.23,SE,142,0.0,0.0,45,0.00,,---,0.00,VWS V14.00,2013-03-14 06:41:00,
2013-03-13 23:46:00,59.2,37.9,29.23,SE,142,0.0,0.0,45,0.00,,---,0.00,VWS V14.00,2013-03-14 06:46:00,
2013-03-13 23:52:00,58.8,38.1,29.23,SE,142,0.0,0.0,46,0.00,,---,0.00,VWS V14.00,2013-03-14 06:52:00,
2013-03-13 23:58:00,58.8,38.7,29.23,SE,142,0.0,0.0,47,0.00,,---,0.00,VWS V14.00,2013-03-14 06:58:00,